Location: Azul
(36.7830°S, 59.8500°W)
Time: 07:59:48
(UTC-03:00)

ISS - Visible Passes

Search period start: 16 July 2019 00:00
Search period end: 26 July 2019 00:00
Orbit: 409 x 418 km, 51.6° (Epoch: 16 July)

Date Brightness Start Highest point End Pass type
(mag) Time Alt. Az. Time Alt. Az. Time Alt. Az.
21 Jul -0.6 07:02:10 10° NNE 07:04:16 16° NE 07:06:23 10° E visible
23 Jul -2.7 06:58:44 10° NNW 07:01:58 47° NE 07:05:14 10° ESE visible
24 Jul -1.5 06:10:50 15° N 06:12:42 24° NE 06:15:31 10° ESE visible
25 Jul -0.3 05:24:42 11° ENE 05:24:42 11° ENE 05:25:10 10° E visible
25 Jul -3.6 06:57:37 19° WNW 06:59:49 53° SW 07:03:09 10° SE visible
